AEZ41ST LIEE-LIML

Flight info

Callsign AEZ41ST
Flight time 1h 4m
Altitude 30000
Route KOVAS DCT DEXUL DCT GIGGI DCT UPDUT DCT CORSI DCT OKROK DCT AKUTI DCT TORTU DCT OLETI DCT UNITA DCT OTMUV DCT GEN
Aircraft B738/M-SDE2E3FGHIRWXY/LB1

Departure

Time 2026-05-07 08:50
Airport Cagliari Elmas Airport (LIEE)

Arrival

Time 2026-05-07 09:54
Airport Milano Linate Airport (LIML)
Time Latitude Longitude Altitude Speed Heading
2026-05-07 08:25 39.25462 9.05769 20 ft 0 kts 321°
2026-05-07 08:43 39.25452 9.05779 20 ft 2 kts 321°
2026-05-07 08:43 39.25441 9.05791 20 ft 2 kts 321°
2026-05-07 08:43 39.25433 9.05799 20 ft 2 kts 321°
2026-05-07 08:43 39.25426 9.05815 20 ft 2 kts 268°
2026-05-07 08:44 39.25429 9.05830 20 ft 0 kts 234°
2026-05-07 08:44 39.25435 9.05837 20 ft 0 kts 231°
2026-05-07 08:45 39.25434 9.05837 20 ft 0 kts 231°
2026-05-07 08:45 39.25395 9.05773 20 ft 15 kts 232°
2026-05-07 08:46 39.25332 9.05692 20 ft 5 kts 170°
2026-05-07 08:46 39.25329 9.05693 20 ft 0 kts 162°
2026-05-07 08:46 39.25303 9.05713 20 ft 15 kts 145°
2026-05-07 08:47 39.25193 9.05831 20 ft 17 kts 145°
2026-05-07 08:47 39.25111 9.05786 20 ft 13 kts 199°
2026-05-07 08:47 39.24984 9.05891 19 ft 28 kts 136°
2026-05-07 08:47 39.24812 9.06091 20 ft 36 kts 138°
2026-05-07 08:48 39.24636 9.06296 20 ft 31 kts 136°
2026-05-07 08:48 39.24483 9.06474 20 ft 27 kts 140°
2026-05-07 08:48 39.24342 9.06571 20 ft 18 kts 192°
2026-05-07 08:48 39.24257 9.06523 20 ft 8 kts 230°
2026-05-07 08:49 39.24251 9.06472 20 ft 4 kts 310°
2026-05-07 08:49 39.24305 9.06406 20 ft 35 kts 317°
2026-05-07 08:49 39.24692 9.05957 20 ft 112 kts 318°
2026-05-07 08:49 39.25436 9.05094 54 ft 171 kts 318°
2026-05-07 08:50 39.26381 9.03994 654 ft 189 kts 319°
2026-05-07 08:50 39.27379 9.02856 1422 ft 199 kts 324°
2026-05-07 08:50 39.28643 9.01878 1943 ft 222 kts 343°
2026-05-07 08:50 39.30172 9.01600 2661 ft 232 kts 11°
2026-05-07 08:51 39.31723 9.02340 3388 ft 244 kts 28°
2026-05-07 08:51 39.33364 9.03107 4101 ft 263 kts 15°
2026-05-07 08:51 39.35191 9.03458 5014 ft 270 kts
2026-05-07 08:51 39.37083 9.03693 5952 ft 276 kts
2026-05-07 08:52 39.38979 9.03910 6847 ft 280 kts
2026-05-07 08:52 39.40945 9.04133 7715 ft 285 kts
2026-05-07 08:52 39.42926 9.04353 8477 ft 289 kts
2026-05-07 08:52 39.44947 9.04573 9207 ft 294 kts
2026-05-07 08:53 39.46974 9.04803 10063 ft 294 kts
2026-05-07 08:53 39.49037 9.05066 10692 ft 302 kts
2026-05-07 08:53 39.51127 9.05337 11402 ft 307 kts
2026-05-07 08:53 39.53242 9.05609 12177 ft 310 kts
2026-05-07 08:54 39.55410 9.05886 12900 ft 315 kts
2026-05-07 08:54 39.57599 9.06166 13597 ft 320 kts
2026-05-07 08:54 39.59828 9.06451 14387 ft 322 kts
2026-05-07 08:54 39.62042 9.06732 15140 ft 325 kts
2026-05-07 08:55 39.64317 9.07084 15836 ft 331 kts
2026-05-07 08:55 39.66571 9.07699 16514 ft 337 kts 11°
2026-05-07 08:55 39.68862 9.08465 17108 ft 344 kts 12°
2026-05-07 08:55 39.71199 9.09266 17705 ft 351 kts 12°
2026-05-07 08:56 39.73575 9.10070 18304 ft 357 kts 11°
2026-05-07 08:56 39.75996 9.10884 18904 ft 363 kts 11°
2026-05-07 08:56 39.78469 9.11717 19422 ft 372 kts 11°
2026-05-07 08:56 39.80991 9.12565 19923 ft 380 kts 11°
2026-05-07 08:57 39.83599 9.13418 20442 ft 387 kts
2026-05-07 08:57 39.86245 9.14070 20975 ft 391 kts
2026-05-07 08:57 39.88956 9.14376 21484 ft 396 kts 359°
2026-05-07 08:57 39.91727 9.14538 22006 ft 401 kts 358°
2026-05-07 08:58 39.94577 9.14675 22378 ft 412 kts 358°
2026-05-07 08:58 39.97505 9.14817 22620 ft 425 kts 359°
2026-05-07 08:58 40.00482 9.14968 22939 ft 435 kts 358°
2026-05-07 08:58 40.03538 9.15127 23333 ft 444 kts 358°
2026-05-07 08:59 40.06634 9.15288 23797 ft 450 kts 358°
2026-05-07 08:59 40.09831 9.15456 24286 ft 456 kts 358°
2026-05-07 08:59 40.12969 9.15624 24805 ft 460 kts 357°
2026-05-07 08:59 40.16224 9.15797 25250 ft 465 kts 357°
2026-05-07 09:00 40.19480 9.15966 25575 ft 473 kts 357°
2026-05-07 09:00 40.22827 9.16042 25790 ft 482 kts 354°
2026-05-07 09:00 40.26177 9.15832 26189 ft 483 kts 348°
2026-05-07 09:00 40.29479 9.15159 26892 ft 477 kts 342°
2026-05-07 09:01 40.32690 9.14237 27655 ft 471 kts 340°
2026-05-07 09:01 40.35903 9.13231 28484 ft 465 kts 339°
2026-05-07 09:01 40.39019 9.12247 29356 ft 457 kts 338°
2026-05-07 09:01 40.42116 9.11270 29843 ft 458 kts 338°
2026-05-07 09:02 40.45227 9.10279 29978 ft 462 kts 337°
2026-05-07 09:02 40.48377 9.09271 29990 ft 463 kts 338°
2026-05-07 09:02 40.54583 9.07311 30002 ft 454 kts 337°
2026-05-07 09:03 40.60801 9.05340 30014 ft 458 kts 337°
2026-05-07 09:03 40.67019 9.03362 30018 ft 461 kts 337°
2026-05-07 09:04 40.73285 9.01383 30015 ft 456 kts 337°
2026-05-07 09:04 40.79451 8.99432 30010 ft 452 kts 336°
2026-05-07 09:05 40.85660 8.97447 30017 ft 456 kts 336°
2026-05-07 09:05 40.91814 8.95498 30025 ft 452 kts 336°
2026-05-07 09:06 40.97992 8.93545 30019 ft 459 kts 337°
2026-05-07 09:06 41.04181 8.91554 30010 ft 461 kts 336°
2026-05-07 09:07 41.10384 8.89569 30000 ft 453 kts 337°
2026-05-07 09:07 41.16465 8.87629 29996 ft 448 kts 337°
2026-05-07 09:08 41.22565 8.85649 29993 ft 457 kts 338°
2026-05-07 09:08 41.28642 8.83503 29978 ft 449 kts 334°
2026-05-07 09:09 41.34718 8.81422 29985 ft 461 kts 345°
2026-05-07 09:09 41.41289 8.81341 29985 ft 473 kts 355°
2026-05-07 09:10 41.47803 8.81825 29990 ft 472 kts 355°
2026-05-07 09:10 41.54400 8.82263 29980 ft 471 kts 355°
2026-05-07 09:11 41.60926 8.82649 29991 ft 470 kts 355°
2026-05-07 09:11 41.67484 8.83012 29991 ft 470 kts 355°
2026-05-07 09:12 41.74071 8.83373 30000 ft 469 kts 355°
2026-05-07 09:12 41.80551 8.83723 30002 ft 468 kts 355°
2026-05-07 09:13 41.87093 8.84074 29999 ft 467 kts 355°
2026-05-07 09:13 41.93589 8.84420 30006 ft 466 kts 355°
2026-05-07 09:14 42.00122 8.84768 30013 ft 467 kts 355°
2026-05-07 09:14 42.06632 8.85116 30020 ft 467 kts 355°
2026-05-07 09:15 42.13132 8.85465 30024 ft 466 kts 355°
2026-05-07 09:15 42.19659 8.85815 30023 ft 467 kts 355°
2026-05-07 09:16 42.26165 8.86165 30027 ft 467 kts 355°
2026-05-07 09:16 42.32687 8.86519 30023 ft 467 kts 355°
2026-05-07 09:17 42.39175 8.86871 30019 ft 467 kts 355°
2026-05-07 09:17 42.45673 8.87223 30021 ft 467 kts 355°
2026-05-07 09:18 42.52185 8.87576 30017 ft 468 kts 355°
2026-05-07 09:18 42.58737 8.87934 30013 ft 467 kts 355°
2026-05-07 09:19 42.65208 8.88288 30001 ft 467 kts 355°
2026-05-07 09:19 42.71703 8.88641 29996 ft 468 kts 355°
2026-05-07 09:20 42.78219 8.88999 29993 ft 466 kts 355°
2026-05-07 09:20 42.84698 8.89471 29998 ft 469 kts 358°
2026-05-07 09:21 42.91185 8.90251 30005 ft 468 kts 358°
2026-05-07 09:21 42.97715 8.91054 30007 ft 470 kts 358°
2026-05-07 09:22 43.04229 8.91837 30011 ft 470 kts 358°
2026-05-07 09:22 43.10738 8.92611 30006 ft 468 kts 358°
2026-05-07 09:23 43.17231 8.93376 30012 ft 470 kts 358°
2026-05-07 09:23 43.23748 8.94143 30007 ft 468 kts 358°
2026-05-07 09:24 43.30185 8.94874 30004 ft 466 kts 358°
2026-05-07 09:24 43.36659 8.95594 30001 ft 467 kts 358°
2026-05-07 09:25 43.43174 8.96337 30011 ft 466 kts 358°
2026-05-07 09:25 43.49588 8.97103 30000 ft 465 kts 358°
2026-05-07 09:26 43.56038 8.97872 29998 ft 465 kts 358°
2026-05-07 09:26 43.62511 8.98645 30000 ft 466 kts 358°
2026-05-07 09:27 43.68965 8.99419 30002 ft 465 kts 358°
2026-05-07 09:28 43.78552 9.00568 29998 ft 464 kts 358°
2026-05-07 09:28 43.84989 9.01344 29997 ft 463 kts 358°
2026-05-07 09:29 43.91386 9.02125 29801 ft 459 kts 358°
2026-05-07 09:29 43.94549 9.02515 29148 ft 458 kts 358°
2026-05-07 09:29 43.97696 9.02895 28459 ft 457 kts 358°
2026-05-07 09:29 44.00841 9.03269 27848 ft 453 kts 358°
2026-05-07 09:30 44.03984 9.03642 27256 ft 449 kts 359°
2026-05-07 09:30 44.07087 9.04010 26672 ft 444 kts 359°
2026-05-07 09:30 44.10137 9.04375 26105 ft 435 kts 359°
2026-05-07 09:30 44.13046 9.04725 25561 ft 426 kts 359°
2026-05-07 09:31 44.15970 9.05075 25017 ft 417 kts 359°
2026-05-07 09:31 44.18796 9.05413 24476 ft 408 kts 359°
2026-05-07 09:31 44.21594 9.05747 23951 ft 400 kts 359°
2026-05-07 09:31 44.24378 9.06080 23415 ft 391 kts 359°
2026-05-07 09:32 44.27060 9.06400 22915 ft 383 kts 359°
2026-05-07 09:32 44.29695 9.06713 22407 ft 375 kts 359°
2026-05-07 09:32 44.32278 9.07021 21930 ft 367 kts 359°
2026-05-07 09:32 44.34812 9.07326 21453 ft 360 kts 360°
2026-05-07 09:33 44.37234 9.07618 20999 ft 354 kts 360°
2026-05-07 09:33 44.39623 9.07904 20531 ft 347 kts
2026-05-07 09:33 44.42015 9.08207 20080 ft 342 kts
2026-05-07 09:33 44.44367 9.08751 19622 ft 339 kts
2026-05-07 09:34 44.46633 9.09439 19172 ft 334 kts
2026-05-07 09:34 44.48913 9.10156 18729 ft 329 kts
2026-05-07 09:34 44.51104 9.10839 18305 ft 329 kts
2026-05-07 09:34 44.53237 9.11496 17889 ft 332 kts
2026-05-07 09:35 44.55477 9.12184 17451 ft 330 kts
2026-05-07 09:35 44.57693 9.12863 17005 ft 325 kts
2026-05-07 09:35 44.59897 9.13538 16571 ft 320 kts
2026-05-07 09:35 44.62062 9.14200 16145 ft 318 kts
2026-05-07 09:36 44.64238 9.14863 15725 ft 322 kts
2026-05-07 09:36 44.66446 9.15537 15288 ft 323 kts
2026-05-07 09:36 44.68612 9.16201 14980 ft 313 kts
2026-05-07 09:36 44.70702 9.16845 14839 ft 299 kts
2026-05-07 09:37 44.72684 9.17454 14552 ft 292 kts
2026-05-07 09:37 44.74686 9.18066 14162 ft 288 kts
2026-05-07 09:37 44.76620 9.18658 13820 ft 283 kts
2026-05-07 09:37 44.78537 9.19275 13482 ft 280 kts 13°
2026-05-07 09:38 44.80316 9.20415 13144 ft 282 kts 34°
2026-05-07 09:38 44.81619 9.22460 12972 ft 285 kts 59°
2026-05-07 09:38 44.82377 9.25105 12969 ft 291 kts 77°
2026-05-07 09:38 44.82633 9.27917 12969 ft 292 kts 86°
2026-05-07 09:39 44.82764 9.30792 12971 ft 292 kts 86°
2026-05-07 09:39 44.82899 9.33666 12963 ft 292 kts 86°
2026-05-07 09:39 44.83041 9.36495 12966 ft 293 kts 86°
2026-05-07 09:39 44.83190 9.39361 12966 ft 292 kts 85°
2026-05-07 09:40 44.83342 9.42261 12964 ft 293 kts 86°
2026-05-07 09:40 44.83493 9.45114 12864 ft 290 kts 85°
2026-05-07 09:40 44.83731 9.47902 12561 ft 287 kts 76°
2026-05-07 09:40 44.84491 9.50493 12383 ft 278 kts 58°
2026-05-07 09:41 44.85505 9.52823 12284 ft 282 kts 56°
2026-05-07 09:41 44.86561 9.55230 12064 ft 290 kts 57°
2026-05-07 09:41 44.87597 9.57644 11864 ft 285 kts 58°
2026-05-07 09:41 44.88779 9.59896 11639 ft 278 kts 43°
2026-05-07 09:42 44.90355 9.61338 11433 ft 267 kts 15°
2026-05-07 09:42 44.92177 9.61586 11136 ft 260 kts 353°
2026-05-07 09:42 44.93980 9.61380 10838 ft 258 kts 353°
2026-05-07 09:42 44.95758 9.61137 10553 ft 254 kts 346°
2026-05-07 09:43 44.97379 9.60242 10277 ft 247 kts 320°
2026-05-07 09:43 44.98473 9.58424 10018 ft 240 kts 296°
2026-05-07 09:43 44.99040 9.56235 9748 ft 236 kts 277°
2026-05-07 09:43 44.99038 9.53924 9490 ft 232 kts 264°
2026-05-07 09:44 44.98888 9.51640 9240 ft 230 kts 264°
2026-05-07 09:44 44.98763 9.49410 8994 ft 228 kts 264°
2026-05-07 09:44 44.98641 9.47148 8734 ft 228 kts 264°
2026-05-07 09:44 44.98521 9.44911 8484 ft 232 kts 264°
2026-05-07 09:45 44.98399 9.42631 8225 ft 232 kts 264°
2026-05-07 09:45 44.98276 9.40348 7969 ft 230 kts 264°
2026-05-07 09:45 44.98160 9.38095 7717 ft 228 kts 266°
2026-05-07 09:45 44.98352 9.35874 7469 ft 228 kts 289°
2026-05-07 09:46 44.99218 9.33994 7229 ft 230 kts 314°
2026-05-07 09:46 45.00538 9.32692 6968 ft 237 kts 336°
2026-05-07 09:46 45.02161 9.32218 6713 ft 238 kts 356°
2026-05-07 09:46 45.03837 9.32079 6422 ft 237 kts 356°
2026-05-07 09:47 45.05476 9.31918 6162 ft 236 kts 355°
2026-05-07 09:47 45.07114 9.31744 5902 ft 235 kts 355°
2026-05-07 09:47 45.08735 9.31570 5644 ft 233 kts 355°
2026-05-07 09:47 45.10360 9.31394 5389 ft 232 kts 355°
2026-05-07 09:48 45.11945 9.31222 5137 ft 230 kts 355°
2026-05-07 09:48 45.13536 9.31049 4887 ft 229 kts 355°
2026-05-07 09:48 45.15104 9.30878 4638 ft 227 kts 355°
2026-05-07 09:48 45.16695 9.30706 4389 ft 226 kts 355°
2026-05-07 09:49 45.18275 9.30533 4134 ft 225 kts 355°
2026-05-07 09:49 45.19842 9.30363 3930 ft 221 kts 355°
2026-05-07 09:49 45.21376 9.30195 3874 ft 221 kts 355°
2026-05-07 09:49 45.22898 9.30021 3805 ft 213 kts 354°
2026-05-07 09:50 45.24358 9.29809 3650 ft 207 kts 354°
2026-05-07 09:50 45.25784 9.29643 3487 ft 202 kts 355°
2026-05-07 09:50 45.27188 9.29517 3287 ft 201 kts 356°
2026-05-07 09:50 45.28586 9.29394 3104 ft 199 kts 356°
2026-05-07 09:51 45.29959 9.29260 2978 ft 192 kts 355°
2026-05-07 09:51 45.31279 9.29118 2740 ft 191 kts 355°
2026-05-07 09:51 45.32632 9.28976 2475 ft 191 kts 355°
2026-05-07 09:51 45.33944 9.28837 2224 ft 188 kts 355°
2026-05-07 09:52 45.35233 9.28698 1961 ft 181 kts 355°
2026-05-07 09:52 45.36464 9.28568 1765 ft 169 kts 355°
2026-05-07 09:52 45.37620 9.28443 1500 ft 162 kts 355°
2026-05-07 09:52 45.38713 9.28335 1261 ft 148 kts 355°
2026-05-07 09:53 45.39717 9.28239 1098 ft 141 kts 355°
2026-05-07 09:53 45.40717 9.28132 930 ft 145 kts 353°
2026-05-07 09:53 45.41736 9.28006 720 ft 145 kts 355°
2026-05-07 09:53 45.42736 9.27896 549 ft 143 kts 355°
2026-05-07 09:54 45.43737 9.27789 373 ft 142 kts 355°
2026-05-07 09:54 45.44635 9.27689 355 ft 106 kts 355°
2026-05-07 09:54 45.45138 9.27635 358 ft 40 kts 355°
2026-05-07 09:54 45.45371 9.27701 359 ft 27 kts 24°
2026-05-07 09:55 45.45446 9.27770 360 ft 1 kts 57°
2026-05-07 09:55 45.45449 9.27776 360 ft 3 kts 58°
2026-05-07 09:55 45.45449 9.27777 360 ft 0 kts 58°
2026-05-07 09:55 45.45450 9.27779 360 ft 1 kts 58°
2026-05-07 09:56 45.45463 9.27897 361 ft 17 kts 84°
2026-05-07 09:56 45.45523 9.27977 361 ft 12 kts
2026-05-07 09:56 45.45597 9.27979 361 ft 8 kts 359°
2026-05-07 09:56 45.45647 9.27980 362 ft 5 kts
2026-05-07 09:57 45.45681 9.27980 362 ft 7 kts
2026-05-07 09:57 45.45762 9.27990 362 ft 9 kts 37°
2026-05-07 09:57 45.45768 9.28056 363 ft 3 kts 91°
2026-05-07 09:57 45.45768 9.28078 363 ft 1 kts 90°
2026-05-07 09:58 45.45768 9.28073 363 ft 0 kts 91°